{"data":{"norad_id":65581,"intl_designator":"2025-203S","name":"PRAETORIAN SDA_618","alt_names":[],"object_type":"PAYLOAD","status":"ACTIVE","operator":null,"country":"US","launch_date":"2025-09-10","launch_site_code":"AFWTR","launch_vehicle":null,"mission":null,"orbit_class":"UNKNOWN","rcs_meters":null,"size_class":null,"mass_kg":null,"dimensions":null,"purposes":["military"],"wikipedia_slug":null,"has_3d_model":false,"image_url":null,"decayed_at":null,"tle_current":{"epoch":"2026-09-20T00:37:21.076896Z","epoch_age_seconds":59303,"freshness":"FRESH","line1":"1 65581U 25203S   26263.02593839  .00000100  00000+0  79345-4 0  9997","line2":"2 65581  81.2987 282.6425 0008781 300.5310  59.4979 13.84229857 51836","mean_motion":13.84229857,"eccentricity":0.0008781,"inclination_deg":81.2987,"raan_deg":282.6425,"arg_perigee_deg":300.531,"mean_anomaly_deg":59.4979,"bstar":7.9345e-5,"rev_number":5183,"period_min":104.0289654726,"perigee_km":942.48829544095,"apogee_km":955.3560767836,"semimajor_km":7327.0591861123,"source":"CELESTRAK","updated_at":"2026-09-20T09:00:47.718123Z"}}}